History for KIDP

Independence, KS

Daily Weekly Monthly
Daily Summary for Monday, March 18, 2019
  Actual: Average: Record:
Temperature
Mean Temperature: 48 °F / 9 °C - :  
Max Temperature: 60 °F / 16 °C 56 °F / 13 °C 78 °F / 25 °C (2009)
Min Temperature: 36 °F / 2 °C 34 °F / 1 °C 34 °F / 1 °C (2001)
Degree Days
Heating Degree Days: 17    
Moisture
Dew Point 31 °F / -1 °C    
Average Humidity 51    
Maximum Humidity 78    
Minimum Humidity 32    
Precipitation
Precipitation 0.00 in / 0.00 cm - - ()
Sea Level Pressure
Sea Level Pressure 30.34 in / 1027 hPa   
Wind
Wind Speed 8 mph / 13 km/h (ENE)  
Max Wind Speed 18 mph / 29 km/h   
Max Gust Speed 20 mph / 32 km/h   
Visibility 10 miles / 16 kilometers   
Events     
Averages and records for this station are not official NWS values.
Key: T is trace of precipitation, MM is missing value
Source: NWS Daily Summary
Seasonal Weather Averages

Graphs

Observations

History Graphs Observations

Obs Go Here...

Features

Weather Apps

WunderRadio

Weather Underground Apps
Check out our wide variety of mobile and setup applications.

Weather Underground Applications

Top of Page

© Copyright 2019
The Weather Company, LLC
Time(CDT)TemperatureDew PointHumidity Sea Level Pressure Visibility Wind DirectionWind SpeedGust SpeedPrecipitationEvents Conditions
12:15 AM 46.0 °F / 7.8 °C 32.2 °F / 0.1 °C 58% 30.33 in / 1027.0 hPa 10.0 miles / 16.1 kilometers NE 5.8 mph / 9.3 km/h - N/A   Mostly Cloudy
12:35 AM 47.5 °F / 8.6 °C 31.1 °F / -0.5 °C 53% 30.33 in / 1027.0 hPa 10.0 miles / 16.1 kilometers ENE 6.9 mph / 11.1 km/h - N/A   Overcast
12:55 AM 47.3 °F / 8.5 °C 31.8 °F / -0.1 °C 55% 30.34 in / 1027.3 hPa 10.0 miles / 16.1 kilometers NE 6.9 mph / 11.1 km/h - N/A   Overcast
1:15 AM 47.1 °F / 8.4 °C 31.3 °F / -0.4 °C 54% 30.34 in / 1027.3 hPa 10.0 miles / 16.1 kilometers ENE 6.9 mph / 11.1 km/h - N/A   Overcast
1:35 AM 46.9 °F / 8.3 °C 31.6 °F / -0.2 °C 55% 30.34 in / 1027.3 hPa 10.0 miles / 16.1 kilometers ENE 6.9 mph / 11.1 km/h - N/A   Overcast
1:55 AM 46.0 °F / 7.8 °C 31.8 °F / -0.1 °C 58% 30.34 in / 1027.3 hPa 10.0 miles / 16.1 kilometers NE 5.8 mph / 9.3 km/h - N/A   Overcast
2:15 AM 45.0 °F / 7.2 °C 32.2 °F / 0.1 °C 61% 30.35 in / 1027.7 hPa 10.0 miles / 16.1 kilometers NE 8.1 mph / 13.0 km/h - N/A   Overcast
2:35 AM 44.2 °F / 6.8 °C 34.2 °F / 1.2 °C 68% 30.35 in / 1027.7 hPa 10.0 miles / 16.1 kilometers NNE 10.4 mph / 16.7 km/h - N/A   Overcast
2:55 AM 45.7 °F / 7.6 °C 31.6 °F / -0.2 °C 58% 30.35 in / 1027.7 hPa 10.0 miles / 16.1 kilometers NE 8.1 mph / 13.0 km/h - N/A   Overcast
3:15 AM 45.3 °F / 7.4 °C 31.1 °F / -0.5 °C 58% 30.35 in / 1027.7 hPa 10.0 miles / 16.1 kilometers ENE 5.8 mph / 9.3 km/h - N/A   Overcast
3:35 AM 42.6 °F / 5.9 °C 32.2 °F / 0.1 °C 67% 30.34 in / 1027.3 hPa 10.0 miles / 16.1 kilometers NE 6.9 mph / 11.1 km/h - N/A   Overcast
3:55 AM 41.9 °F / 5.5 °C 31.6 °F / -0.2 °C 67% 30.34 in / 1027.3 hPa 10.0 miles / 16.1 kilometers NE 6.9 mph / 11.1 km/h - N/A   Overcast
4:15 AM 42.1 °F / 5.6 °C 30.0 °F / -1.1 °C 62% 30.34 in / 1027.3 hPa 10.0 miles / 16.1 kilometers NE 6.9 mph / 11.1 km/h - N/A   Mostly Cloudy
4:35 AM 41.0 °F / 5.0 °C 29.5 °F / -1.4 °C 64% 30.33 in / 1027.0 hPa 10.0 miles / 16.1 kilometers ENE 5.8 mph / 9.3 km/h - N/A   Scattered Clouds
4:55 AM 41.7 °F / 5.4 °C 28.8 °F / -1.8 °C 60% 30.33 in / 1027.0 hPa 10.0 miles / 16.1 kilometers ESE 4.6 mph / 7.4 km/h - N/A   Scattered Clouds
5:15 AM 41.4 °F / 5.2 °C 28.8 °F / -1.8 °C 61% 30.32 in / 1026.6 hPa 10.0 miles / 16.1 kilometers ESE 5.8 mph / 9.3 km/h - N/A   Scattered Clouds
5:35 AM 39.4 °F / 4.1 °C 27.9 °F / -2.3 °C 63% 30.33 in / 1027.0 hPa 10.0 miles / 16.1 kilometers NNE 6.9 mph / 11.1 km/h - N/A   Clear
5:55 AM 36.9 °F / 2.7 °C 28.6 °F / -1.9 °C 72% 30.34 in / 1027.3 hPa 10.0 miles / 16.1 kilometers NNE 9.2 mph / 14.8 km/h - N/A   Clear
6:15 AM 37.9 °F / 3.3 °C 29.3 °F / -1.5 °C 71% 30.35 in / 1027.7 hPa 10.0 miles / 16.1 kilometers NE 9.2 mph / 14.8 km/h - N/A   Clear
6:35 AM 36.3 °F / 2.4 °C 29.1 °F / -1.6 °C 75% 30.35 in / 1027.7 hPa 10.0 miles / 16.1 kilometers NNE 9.2 mph / 14.8 km/h - N/A   Clear
6:55 AM 36.5 °F / 2.5 °C 29.5 °F / -1.4 °C 76% 30.36 in / 1028.0 hPa 10.0 miles / 16.1 kilometers NNE 10.4 mph / 16.7 km/h - N/A   Clear
7:15 AM 36.0 °F / 2.2 °C 29.8 °F / -1.2 °C 78% 30.37 in / 1028.3 hPa 10.0 miles / 16.1 kilometers NNE 9.2 mph / 14.8 km/h - N/A   Clear
7:35 AM 37.0 °F / 2.8 °C 30.0 °F / -1.1 °C 76% 30.38 in / 1028.7 hPa 10.0 miles / 16.1 kilometers NE 8.1 mph / 13.0 km/h - N/A   Clear
7:55 AM 38.8 °F / 3.8 °C 30.2 °F / -1.0 °C 71% 30.38 in / 1028.7 hPa 10.0 miles / 16.1 kilometers NE 6.9 mph / 11.1 km/h - N/A   Clear
8:15 AM 39.7 °F / 4.3 °C 30.9 °F / -0.6 °C 71% 30.39 in / 1029.0 hPa 10.0 miles / 16.1 kilometers NE 9.2 mph / 14.8 km/h - N/A   Clear
8:35 AM 41.0 °F / 5.0 °C 31.3 °F / -0.4 °C 68% 30.40 in / 1029.3 hPa 10.0 miles / 16.1 kilometers NNE 8.1 mph / 13.0 km/h - N/A   Clear
8:55 AM 42.8 °F / 6.0 °C 31.6 °F / -0.2 °C 65% 30.40 in / 1029.3 hPa 10.0 miles / 16.1 kilometers NE 8.1 mph / 13.0 km/h - N/A   Clear
9:15 AM 44.4 °F / 6.9 °C 31.6 °F / -0.2 °C 61% 30.41 in / 1029.7 hPa 10.0 miles / 16.1 kilometers NE 9.2 mph / 14.8 km/h - N/A   Clear
9:35 AM 46.2 °F / 7.9 °C 31.5 °F / -0.3 °C 56% 30.42 in / 1030.0 hPa 10.0 miles / 16.1 kilometers NE 9.2 mph / 14.8 km/h - N/A   Clear
9:55 AM 48.4 °F / 9.1 °C 30.2 °F / -1.0 °C 49% 30.42 in / 1030.0 hPa 10.0 miles / 16.1 kilometers ENE 12.7 mph / 20.4 km/h - N/A   Clear
10:15 AM 50.2 °F / 10.1 °C 29.8 °F / -1.2 °C 46% 30.42 in / 1030.0 hPa 10.0 miles / 16.1 kilometers East 12.7 mph / 20.4 km/h - N/A   Clear
10:35 AM 51.4 °F / 10.8 °C 28.8 °F / -1.8 °C 42% 30.42 in / 1030.0 hPa 10.0 miles / 16.1 kilometers ENE 18.4 mph / 29.6 km/h - N/A   Clear
10:55 AM 52.5 °F / 11.4 °C 29.7 °F / -1.3 °C 42% 30.43 in / 1030.4 hPa 10.0 miles / 16.1 kilometers East 17.3 mph / 27.8 km/h - N/A   Clear
11:15 AM 53.4 °F / 11.9 °C 30.6 °F / -0.8 °C 42% 30.42 in / 1030.0 hPa 10.0 miles / 16.1 kilometers ENE 12.7 mph / 20.4 km/h 18.4 mph / 29.6 km/h N/A   Clear
11:35 AM 52.9 °F / 11.6 °C 30.2 °F / -1.0 °C 42% 30.42 in / 1030.0 hPa 10.0 miles / 16.1 kilometers ENE 11.5 mph / 18.5 km/h - N/A   Clear
11:55 AM 54.1 °F / 12.3 °C 31.1 °F / -0.5 °C 41% 30.41 in / 1029.7 hPa 10.0 miles / 16.1 kilometers ENE 11.5 mph / 18.5 km/h 19.6 mph / 31.5 km/h N/A   Clear
12:15 PM 54.0 °F / 12.2 °C 31.1 °F / -0.5 °C 42% 30.41 in / 1029.7 hPa 10.0 miles / 16.1 kilometers ENE 12.7 mph / 20.4 km/h 18.4 mph / 29.6 km/h N/A   Clear
12:35 PM 55.0 °F / 12.8 °C 30.9 °F / -0.6 °C 40% 30.40 in / 1029.3 hPa 10.0 miles / 16.1 kilometers NE 12.7 mph / 20.4 km/h 17.3 mph / 27.8 km/h N/A   Clear
12:55 PM 55.9 °F / 13.3 °C 30.4 °F / -0.9 °C 38% 30.39 in / 1029.0 hPa 10.0 miles / 16.1 kilometers East 12.7 mph / 20.4 km/h - N/A   Clear
1:15 PM 57.7 °F / 14.3 °C 30.9 °F / -0.6 °C 36% 30.39 in / 1029.0 hPa 10.0 miles / 16.1 kilometers ESE 9.2 mph / 14.8 km/h - N/A   Clear
1:35 PM 58.1 °F / 14.5 °C 30.0 °F / -1.1 °C 34% 30.38 in / 1028.7 hPa 10.0 miles / 16.1 kilometers ENE 9.2 mph / 14.8 km/h 19.6 mph / 31.5 km/h N/A   Clear
1:55 PM 58.5 °F / 14.7 °C 30.2 °F / -1.0 °C 34% 30.37 in / 1028.3 hPa 10.0 miles / 16.1 kilometers ENE 6.9 mph / 11.1 km/h - N/A   Clear
2:15 PM 58.6 °F / 14.8 °C 29.3 °F / -1.5 °C 33% 30.36 in / 1028.0 hPa 10.0 miles / 16.1 kilometers ENE 6.9 mph / 11.1 km/h - N/A   Clear
2:35 PM 59.0 °F / 15.0 °C 29.3 °F / -1.5 °C 32% 30.35 in / 1027.7 hPa 10.0 miles / 16.1 kilometers ESE 10.4 mph / 16.7 km/h 17.3 mph / 27.8 km/h N/A   Clear
2:55 PM 59.9 °F / 15.5 °C 29.8 °F / -1.2 °C 32% 30.34 in / 1027.3 hPa 10.0 miles / 16.1 kilometers NNE 5.8 mph / 9.3 km/h - N/A   Clear
3:15 PM 59.2 °F / 15.1 °C 29.5 °F / -1.4 °C 32% 30.33 in / 1027.0 hPa 10.0 miles / 16.1 kilometers NE 8.1 mph / 13.0 km/h - N/A   Clear
3:35 PM 60.3 °F / 15.7 °C 30.0 °F / -1.1 °C 32% 30.32 in / 1026.6 hPa 10.0 miles / 16.1 kilometers East 6.9 mph / 11.1 km/h - N/A   Clear
3:55 PM 60.8 °F / 16.0 °C 30.9 °F / -0.6 °C 32% 30.31 in / 1026.3 hPa 10.0 miles / 16.1 kilometers East 10.4 mph / 16.7 km/h 17.3 mph / 27.8 km/h N/A   Clear
4:15 PM 60.8 °F / 16.0 °C 30.6 °F / -0.8 °C 32% 30.31 in / 1026.3 hPa 10.0 miles / 16.1 kilometers East 10.4 mph / 16.7 km/h - N/A   Clear
4:35 PM 60.4 °F / 15.8 °C 31.5 °F / -0.3 °C 34% 30.30 in / 1026.0 hPa 10.0 miles / 16.1 kilometers ESE 8.1 mph / 13.0 km/h - N/A   Clear
4:55 PM 60.3 °F / 15.7 °C 31.3 °F / -0.4 °C 34% 30.30 in / 1026.0 hPa 10.0 miles / 16.1 kilometers ESE 5.8 mph / 9.3 km/h - N/A   Clear
5:15 PM 60.3 °F / 15.7 °C 30.7 °F / -0.7 °C 33% 30.30 in / 1026.0 hPa 10.0 miles / 16.1 kilometers ESE 6.9 mph / 11.1 km/h - N/A   Clear
5:35 PM 60.4 °F / 15.8 °C 31.6 °F / -0.2 °C 34% 30.29 in / 1025.6 hPa 10.0 miles / 16.1 kilometers East 9.2 mph / 14.8 km/h - N/A   Clear
5:55 PM 59.7 °F / 15.4 °C 31.1 °F / -0.5 °C 34% 30.29 in / 1025.6 hPa 10.0 miles / 16.1 kilometers East 6.9 mph / 11.1 km/h - N/A   Clear
6:15 PM 59.4 °F / 15.2 °C 31.5 °F / -0.3 °C 35% 30.29 in / 1025.6 hPa 10.0 miles / 16.1 kilometers East 8.1 mph / 13.0 km/h - N/A   Clear
6:35 PM 58.5 °F / 14.7 °C 31.6 °F / -0.2 °C 36% 30.29 in / 1025.6 hPa 10.0 miles / 16.1 kilometers East 8.1 mph / 13.0 km/h - N/A   Clear
6:55 PM 57.4 °F / 14.1 °C 32.4 °F / 0.2 °C 39% 30.29 in / 1025.6 hPa 10.0 miles / 16.1 kilometers East 6.9 mph / 11.1 km/h - N/A   Clear
7:15 PM 55.2 °F / 12.9 °C 32.9 °F / 0.5 °C 43% 30.29 in / 1025.6 hPa 10.0 miles / 16.1 kilometers East 9.2 mph / 14.8 km/h - N/A   Clear
7:35 PM 53.8 °F / 12.1 °C 32.7 °F / 0.4 °C 45% 30.30 in / 1026.0 hPa 10.0 miles / 16.1 kilometers ENE 6.9 mph / 11.1 km/h - N/A   Clear
7:55 PM 52.5 °F / 11.4 °C 33.1 °F / 0.6 °C 48% 30.30 in / 1026.0 hPa 10.0 miles / 16.1 kilometers ENE 8.1 mph / 13.0 km/h - N/A   Clear
8:15 PM 51.4 °F / 10.8 °C 33.1 °F / 0.6 °C 50% 30.30 in / 1026.0 hPa 10.0 miles / 16.1 kilometers ENE 8.1 mph / 13.0 km/h - N/A   Clear
8:35 PM 50.9 °F / 10.5 °C 32.9 °F / 0.5 °C 50% 30.29 in / 1025.6 hPa 10.0 miles / 16.1 kilometers ENE 8.1 mph / 13.0 km/h - N/A   Clear
8:55 PM 50.0 °F / 10.0 °C 33.1 °F / 0.6 °C 52% 30.30 in / 1026.0 hPa 10.0 miles / 16.1 kilometers ENE 8.1 mph / 13.0 km/h - N/A   Clear
9:15 PM 49.5 °F / 9.7 °C 33.1 °F / 0.6 °C 53% 30.30 in / 1026.0 hPa 10.0 miles / 16.1 kilometers ENE 8.1 mph / 13.0 km/h - N/A   Clear
9:35 PM 49.3 °F / 9.6 °C 33.1 °F / 0.6 °C 54% 30.30 in / 1026.0 hPa 10.0 miles / 16.1 kilometers ENE 9.2 mph / 14.8 km/h - N/A   Mostly Cloudy
9:55 PM 49.1 °F / 9.5 °C 33.1 °F / 0.6 °C 54% 30.30 in / 1026.0 hPa 10.0 miles / 16.1 kilometers East 8.1 mph / 13.0 km/h - N/A   Overcast
10:15 PM 48.7 °F / 9.3 °C 33.3 °F / 0.7 °C 55% 30.30 in / 1026.0 hPa 10.0 miles / 16.1 kilometers East 8.1 mph / 13.0 km/h - N/A   Overcast
10:35 PM 47.5 °F / 8.6 °C 33.1 °F / 0.6 °C 57% 30.29 in / 1025.6 hPa 10.0 miles / 16.1 kilometers East 10.4 mph / 16.7 km/h - N/A   Scattered Clouds
10:55 PM 47.8 °F / 8.8 °C 33.1 °F / 0.6 °C 57% 30.29 in / 1025.6 hPa 10.0 miles / 16.1 kilometers ENE 10.4 mph / 16.7 km/h - N/A   Clear
11:15 PM 48.0 °F / 8.9 °C 32.7 °F / 0.4 °C 55% 30.29 in / 1025.6 hPa 10.0 miles / 16.1 kilometers East 11.5 mph / 18.5 km/h - N/A   Clear
11:35 PM 48.0 °F / 8.9 °C 31.8 °F / -0.1 °C 54% 30.29 in / 1025.6 hPa 10.0 miles / 16.1 kilometers East 12.7 mph / 20.4 km/h - N/A   Clear
11:55 PM 47.1 °F / 8.4 °C 31.6 °F / -0.2 °C 55% 30.29 in / 1025.6 hPa 10.0 miles / 16.1 kilometers East 10.4 mph / 16.7 km/h - N/A   Clear